Location: Koslow
(50.3020°N, 18.5663°E)
Time: 06:51:42
(UTC+00:00)

STARLINK-1357 - Pass Details

Date: 08 October 2020
Orbit: 548 x 551 km, 53.0° (Epoch: 31 October)

Event Time Altitude Azimuth Distance (km) Brightness Sun altitude
Exits shadow 02:06:37 44° 63° (ENE) 771 4.7 -27.4°
Drops below altitude 10° 02:09:41 10° 88° (E) 1,833 7.1 -26.9°
Sets 02:11:56 0° 92° (E) 2,723 8.1 -26.6°
